Accueil
METAR-TAF:

METAR-TAF

Aéroports :

Cassel, Allemagne

latitude: 51-24N, longitude: 009-23E, altitude: 277 m

Observation

Le bulletin a été fait il y a 42 minutes, à 03:20 UTC
Vent 3 kt de sud
Température 4°C
Humidité 100%
Pression 1026 hPa
Visibilité 10 km ou plus
Nuages fragmentés à une hauteur de 3400 ft

METAR: EDVK 220320Z 19003KT 9999 BKN034 04/04 Q1026

Heure: 06:02 (04:02 UTC)

Prévision

Le bulletin a été fait il y a 8 heures et 2 minutes, à 20:00 UTC
Prévision valable du 21 à 21 UTC au 22 à 03 UTC
Vent 3 kt de direction variable
Visibilité 10 km ou plus
pas de nuages en-dessous de 1500 mètres et pas de cumulonimbus.
Temporairement
du 22 à 00 UTC au 22 à 03 UTC
Visibilité: 3500 m
brume

TAF: EDVK 212000Z 2121/2203 VRB03KT CAVOK TEMPO 2200/2203 3500 BR

Observations et prévisions météorologiques de plus de 4000 aéroports (messages METAR et TAF).

Les stations disponibles sont représentées par des disques jaunes et rouges sur la carte.

Passer la souris dessus pour voir le nom de la station.

Cliquer dessus pour voir les observations et prévisions météorologiques.

Pour changer de carte: cliquez sur les boutons verts avec une croix noire pour zoomer, sur le bouton vert avec un tiret pour effectuer un zoom arrière, ou sur les flèches vertes pour les cartes adjacentes.


METAR-TAF: